AVA123 SPJC-SLLP

Flight info

Callsign AVA123
Flight time N/A
Altitude 37000
Route KULIS UM415 JUL UM657 ELAKO
Aircraft A320/M-SDE3FGHIRWY/LB1

Departure

Time N/A
Airport Jorge Chávez International Airport (SPJC)

Arrival

Time 2026-04-21 17:02
Airport El Alto International Airport (SLLP)
Time Latitude Longitude Altitude Speed Heading
2026-04-21 16:26 -14.69288 -72.05894 37233 ft 468 kts 110°
2026-04-21 16:27 -14.70570 -72.02803 37232 ft 468 kts 110°
2026-04-21 16:27 -14.73120 -71.96619 37234 ft 468 kts 110°
2026-04-21 16:28 -14.75662 -71.90429 37230 ft 468 kts 110°
2026-04-21 16:28 -14.78208 -71.84249 37266 ft 467 kts 110°
2026-04-21 16:29 -14.80749 -71.78064 37259 ft 467 kts 110°
2026-04-21 16:29 -14.83286 -71.71882 37260 ft 467 kts 110°
2026-04-21 16:30 -14.85821 -71.65703 37241 ft 467 kts 110°
2026-04-21 16:30 -14.88351 -71.59521 37270 ft 467 kts 110°
2026-04-21 16:31 -14.90863 -71.53376 37248 ft 467 kts 110°
2026-04-21 16:31 -14.93393 -71.47186 37250 ft 467 kts 110°
2026-04-21 16:32 -14.95915 -71.40997 37249 ft 467 kts 110°
2026-04-21 16:32 -14.98434 -71.34802 37250 ft 467 kts 110°
2026-04-21 16:33 -15.00963 -71.28613 37269 ft 467 kts 110°
2026-04-21 16:33 -15.03489 -71.22422 37270 ft 467 kts 110°
2026-04-21 16:34 -15.06002 -71.16228 37270 ft 467 kts 110°
2026-04-21 16:34 -15.08524 -71.10036 37264 ft 467 kts 110°
2026-04-21 16:35 -15.11039 -71.03842 37288 ft 467 kts 110°
2026-04-21 16:35 -15.13550 -70.97646 37282 ft 467 kts 110°
2026-04-21 16:36 -15.16063 -70.91446 37290 ft 467 kts 110°
2026-04-21 16:36 -15.18570 -70.85246 37273 ft 467 kts 110°
2026-04-21 16:37 -15.21084 -70.79041 37273 ft 467 kts 110°
2026-04-21 16:37 -15.23589 -70.72833 37282 ft 467 kts 109°
2026-04-21 16:38 -15.26074 -70.66664 37284 ft 467 kts 109°
2026-04-21 16:38 -15.28579 -70.60455 37259 ft 467 kts 110°
2026-04-21 16:39 -15.31083 -70.54242 37259 ft 467 kts 109°
2026-04-21 16:39 -15.33578 -70.48028 37276 ft 467 kts 110°
2026-04-21 16:40 -15.36074 -70.41818 37247 ft 467 kts 110°
2026-04-21 16:40 -15.38573 -70.35615 37247 ft 467 kts 110°
2026-04-21 16:41 -15.41067 -70.29399 37562 ft 466 kts 110°
2026-04-21 16:41 -15.43555 -70.23191 37639 ft 467 kts 110°
2026-04-21 16:42 -15.46045 -70.16973 37631 ft 467 kts 110°
2026-04-21 16:42 -15.47431 -70.13923 37210 ft 469 kts 117°
2026-04-21 16:42 -15.49044 -70.10981 37209 ft 469 kts 117°
2026-04-21 16:43 -15.52264 -70.05094 37203 ft 469 kts 117°
2026-04-21 16:43 -15.55470 -69.99191 37221 ft 469 kts 117°
2026-04-21 16:44 -15.58673 -69.93289 37221 ft 470 kts 117°
2026-04-21 16:44 -15.61887 -69.87392 37214 ft 470 kts 117°
2026-04-21 16:45 -15.65094 -69.81487 37220 ft 470 kts 117°
2026-04-21 16:45 -15.68300 -69.75587 37219 ft 469 kts 117°
2026-04-21 16:46 -15.71499 -69.69683 37219 ft 469 kts 117°
2026-04-21 16:46 -15.74696 -69.63774 37199 ft 470 kts 117°
2026-04-21 16:47 -15.77889 -69.57860 37200 ft 470 kts 116°
2026-04-21 16:47 -15.81088 -69.51938 37188 ft 470 kts 117°
2026-04-21 16:48 -15.84297 -69.46024 37191 ft 470 kts 117°
2026-04-21 16:48 -15.87500 -69.40106 37191 ft 470 kts 117°
2026-04-21 16:49 -15.90696 -69.34187 37180 ft 470 kts 116°
2026-04-21 16:49 -15.94153 -69.28421 37179 ft 472 kts 124°
2026-04-21 16:50 -15.98051 -69.22940 37161 ft 471 kts 124°
2026-04-21 16:50 -16.00001 -69.20199 36758 ft 473 kts 124°
2026-04-21 16:50 -16.01962 -69.17437 35300 ft 479 kts 124°
2026-04-21 16:50 -16.03955 -69.14626 33736 ft 487 kts 125°
2026-04-21 16:51 -16.05971 -69.11779 32043 ft 491 kts 125°
2026-04-21 16:51 -16.08002 -69.08914 30431 ft 493 kts 126°
2026-04-21 16:51 -16.10051 -69.06018 28892 ft 501 kts 126°
2026-04-21 16:51 -16.12094 -69.03126 28318 ft 489 kts 126°
2026-04-21 16:52 -16.14093 -69.00298 27609 ft 483 kts 126°
2026-04-21 16:52 -16.16046 -68.97540 26898 ft 477 kts 126°
2026-04-21 16:52 -16.18006 -68.94775 26200 ft 472 kts 126°
2026-04-21 16:52 -16.19948 -68.92037 25512 ft 469 kts 126°
2026-04-21 16:53 -16.21876 -68.89316 24827 ft 465 kts 126°
2026-04-21 16:53 -16.23785 -68.86613 24137 ft 462 kts 126°
2026-04-21 16:53 -16.25681 -68.83920 23423 ft 460 kts 126°
2026-04-21 16:53 -16.27563 -68.81247 22747 ft 455 kts 125°
2026-04-21 16:54 -16.29422 -68.78610 22134 ft 449 kts 126°
2026-04-21 16:54 -16.31264 -68.75999 21564 ft 445 kts 126°
2026-04-21 16:54 -16.33082 -68.73422 20998 ft 439 kts 126°
2026-04-21 16:54 -16.34881 -68.70874 20464 ft 435 kts 126°
2026-04-21 16:55 -16.36661 -68.68350 19944 ft 430 kts 126°
2026-04-21 16:55 -16.38421 -68.65852 19438 ft 425 kts 126°
2026-04-21 16:55 -16.40149 -68.63396 19094 ft 410 kts 126°
2026-04-21 16:55 -16.41778 -68.61082 18984 ft 382 kts 126°
2026-04-21 16:56 -16.43305 -68.58919 18834 ft 359 kts 126°
2026-04-21 16:56 -16.44740 -68.56886 18683 ft 338 kts 126°
2026-04-21 16:56 -16.46091 -68.54971 18521 ft 319 kts 126°
2026-04-21 16:56 -16.47364 -68.53163 18382 ft 302 kts 125°
2026-04-21 16:57 -16.48591 -68.51417 18245 ft 296 kts 125°
2026-04-21 16:57 -16.49740 -68.49652 18111 ft 293 kts 115°
2026-04-21 16:57 -16.50387 -68.47663 17941 ft 288 kts 97°
2026-04-21 16:57 -16.50529 -68.45594 17311 ft 288 kts 91°
2026-04-21 16:58 -16.50572 -68.43490 16858 ft 292 kts 90°
2026-04-21 16:58 -16.50614 -68.41432 16671 ft 276 kts 91°
2026-04-21 16:58 -16.50678 -68.39462 16334 ft 269 kts 91°
2026-04-21 16:58 -16.50743 -68.37532 15933 ft 265 kts 92°
2026-04-21 16:59 -16.50806 -68.35617 15471 ft 263 kts 92°
2026-04-21 16:59 -16.50867 -68.33730 15067 ft 257 kts 92°
2026-04-21 16:59 -16.50928 -68.31866 14887 ft 258 kts 92°
2026-04-21 16:59 -16.50988 -68.30006 14670 ft 254 kts 93°
2026-04-21 17:00 -16.51044 -68.28249 14475 ft 232 kts 92°
2026-04-21 17:00 -16.51096 -68.26641 14203 ft 212 kts 92°
2026-04-21 17:00 -16.51127 -68.25669 14052 ft 195 kts 92°
2026-04-21 17:00 -16.51185 -68.23895 13697 ft 175 kts 91°
2026-04-21 17:01 -16.51224 -68.22647 13430 ft 169 kts 91°
2026-04-21 17:01 -16.51263 -68.21429 13211 ft 167 kts 91°
2026-04-21 17:01 -16.51298 -68.20249 13169 ft 150 kts 92°
2026-04-21 17:01 -16.51328 -68.19341 13216 ft 101 kts 92°
2026-04-21 17:02 -16.51342 -68.18896 13235 ft 81 kts 91°
2026-04-21 17:02 -16.51353 -68.18516 13252 ft 41 kts 90°
2026-04-21 17:02 -16.51310 -68.18271 13264 ft 31 kts 65°
2026-04-21 17:02 -16.51194 -68.18104 13268 ft 27 kts 48°
2026-04-21 17:03 -16.51075 -68.17970 13271 ft 24 kts 47°
2026-04-21 17:03 -16.50990 -68.17851 13276 ft 18 kts 87°
2026-04-21 17:03 -16.51006 -68.17736 13281 ft 13 kts 112°
2026-04-21 17:03 -16.50965 -68.17688 13283 ft 5 kts 27°
2026-04-21 17:04 -16.50963 -68.17687 13283 ft 0 kts 27°